Showing default

HULIANWANG DIGUI-43, 65046

Orbit data source: Space-Track

HULIANWANG DIGUI-43, 65046 is a payload satellite owned by Zhongguo Xingwang (CN) in LEO that was launched on Wed, 30 Jul 2025 UTC via a CHANG ZHENG 8A launch vehicle from the Wenchang Satellite Launch Center (WSC). Payload-class satellites include a variety of spacecraft equipped with specific instruments for various scientific and technological missions. These include communications satellites like Starlink; space stations such as the ISS; scientific satellites like the Hubble; Earth observation satellites from companies like Planet Labs, Umbra, and HawkEye 360; GPS; miniature CubeSats for education and research; and military/defense satellites.

Loading next visibility...
Identifier
65046, 2025-162D
Orbit
LEO
Country
Flag of CNCN / PRC
Related business
Manufacturer
SECM
Mission
Operational Civil Communications
Bus & Motor
XINGWANG S, Unknown motor
Mass
~800 kg wet, ~800 kg dry
Launch date (UTC)
2025-07-30 (11 months ago)
Launch vehicle
CHANG ZHENG 8A
Launch site
Wenchang Satellite Launch Center (WSC)
Object type
Payload
Rocket body
Debris
Shape & HBR
Box + 2 Pan, 14.5 m
Radar Cross Section
5.935 m², Large (>1 m²)

Expand to show TLE details & history
Last TLE update: 10 hours ago

TLE from 10 hours ago
0 HULIANWANG DIGUI-43
1 65046U 25162D   26171.44894291 -.00000077  00000-0  10119-3 0  9995
2 65046  49.9986 254.0031 0000319 181.7234 178.3637 13.29324654 43799
Epoch: 2026-06-20T10:46Z
TLE epoch observation values (Epoch: 2026-06-20T10:46:28.667Z)
Latitude
-0.00002°
Longitude
-176.27977°
Altitude
1,150.057 km
Speed
7.279 km/s
True Right ascension
16h 56m 00s
True Declination
0° 00' 00"
Sunlit
Object was in full shadow at epoch
Visualization orbit readout
Latitude
Unknown
Longitude
Unknown
Altitude
Unknown
Speed
Unknown
Apparent Right ascension
Unknown
Apparent Declination
Unknown
Sunlit
N/A
Visualization observer readout
Local Sidereal Time
07:19:02
Azimuth
Unknown
Elevation
Unknown
Doppler factor
Unknown
Orbital elements
Apogee altitude
1,150.257 km
Perigee altitude
1,149.777 km
Semi-major axis
7,528.154 km
Eccentricity
0.00003
Inclination
49.9986°
RAAN
254.0031°
Arg. of periapsis
181.7234°
True anomaly
178.3638°
Mean anomaly
178.3637°
Eccentric anomaly
178.36375°
Mean motion
3.32285 °/min
Orbital period
108.34 mins
BSTAR
0.00010119
Loading maneuver chart data...
Computing Atmospheric mass density...
Loading historical data...
Loading historical data...
Loading historical data...
Loading historical data...
Loading historical data...
Loading historical data...
Loading historical data...

Documentation

Showing up to 5 results
|